STARLINK-11343, 62017

Orbit data source: Space-Track

STARLINK-11343, 62017 is a payload satellite owned by SpaceX/Seattle (US) in LEO that was launched on Mon, 18 Nov 2024 UTC via an FALCON 9 launch vehicle from the Air Force Western Test Range (AFWTR). Payload-class satellites include a variety of spacecraft equipped with specific instruments for various scientific and technological missions. These include communications satellites like Starlink; space stations such as the ISS; scientific satellites like the Hubble; Earth observation satellites from companies like Planet Labs, Umbra, and HawkEye 360; GPS; miniature CubeSats for education and research; and military/defense satellites.

Loading next visibility...
Identifier
62017, 2024-213K
Orbit
LEO
Country
Flag of USUS
Related business
Manufacturer
SpaceX/Seattle
Mission
Operational Commercial Communications
Bus & Motor
STARLINK V2M, Unknown motor
Mass
730 kg wet, ~700 kg dry
Launch date (UTC)
2024-11-18 (9 months ago)
Launch vehicle
FALCON 9
Launch site
Air Force Western Test Range (AFWTR)
Object type
Payload
Rocket body
Debris
Shape & HBR
Box + 2 Pan, 14.5 m
Radar Cross Section
36.964 m², Large (>1 m²)

Expand to show TLE details & history
Last TLE update: 18 hours ago

TLE from 18 hours ago
0 STARLINK-11343
1 62017U 24213K   25241.79028641  .00278659  00000-0  22214-2 0  9999
2 62017  53.1577 267.3724 0003191  75.3326 284.8045 15.69785796 44773
Epoch: 2025-08-29T18:58Z
TLE epoch observation values (Epoch: 2025-08-29T18:58:00.745Z)
Latitude
-0.00008°
Longitude
4.63535°
Altitude
359.876 km
Speed
7.695 km/s
True Right ascension
17h 49m 29s
True Declination
0° 00' 00"
Sunlit
Object was in partial shadow at epoch
Visualization orbit readout
Latitude
Unknown
Longitude
Unknown
Altitude
Unknown
Speed
Unknown
Apparent Right ascension
Unknown
Apparent Declination
Unknown
Sunlit
N/A
Visualization observer readout
Local Sidereal Time
04:16:42
Azimuth
Unknown
Elevation
Unknown
Doppler factor
Unknown
Orbital elements
Apogee altitude
361.921 km
Perigee altitude
357.621 km
Semi-major axis
6,737.908 km
Eccentricity
0.00032
Inclination
53.1577°
RAAN
267.3724°
Arg. of periapsis
75.3326°
True anomaly
284.76914°
Mean anomaly
284.8045°
Eccentric anomaly
284.78682°
Mean motion
3.92424 °/min
Orbital period
91.74 mins
BSTAR
0.0022214
Loading maneuver chart data...
Computing Atmospheric mass density...
Loading historical data...
Loading historical data...
Loading historical data...
Loading historical data...
Loading historical data...
Loading historical data...
Loading historical data...

Documentation

Showing up to 5 results
|